Regional Weather Roundup
Issued by NWS Newport/Morehead, NC

Current Version | Previous Version | Text Only | Print | Product List | Glossary On
Versions: 1 2 3 4 5 6 7 8 9 10 11 12 13 14 15 16 17 18 19 20 21 22 23 24 25 26 27 28 29 30 31 32 33 34 35 36 37 38 39 40 41 42 43 44 45 46 47 48 49 50
000 ASUS42 KMHX 300825 RWRMHX WEATHER ROUNDUP FOR EASTERN NORTH CAROLINA NATIONAL WEATHER SERVICE NEWPORT/MOREHEAD CITY NC 400 AM EDT SAT APR 30 2016 NOTE: "FAIR" INDICATES FEW OR NO CLOUDS BELOW 12,000 FEET WITH NO SIGNIFICANT WEATHER AND/OR OBSTRUCTIONS TO VISIBILITY NCZ015>017-031-032-045>047-102-103-300900- NORTH COAST CITY SKY/WX TMP DP RH WIND PRES REMARKS EDENTON CLOUDY 57 55 95 NE6 30.09R ELIZABETH CITY CLOUDY 55 53 93 N13 30.08R KITTY HAWK CLOUDY 55 54 97 N6 30.07R FOG MANTEO NOT AVBL $$ NCZ045>047-081-094-103-104-300900- CENTRAL COAST CITY SKY/WX TMP DP RH WIND PRES REMARKS FRISCO CLOUDY 58 56 93 N10G17 30.04S SWANQUARTER NOT AVBL $$ NCZ095-097-098-100-101-300900- SOUTHERN COAST CITY SKY/WX TMP DP RH WIND PRES REMARKS BEAUFORT CLOUDY 62 59 90 NE9 30.03R CEDAR ISLAND NOT AVBL JACKSONVILLE CLOUDY 61 58 90 N8 30.04R PINEY ISLAND NOT AVBL WILMINGTON CLEAR 60 58 92 NE9 30.02R $$ NCZ011>013-027>030-043-044-078>080-089-090>093-098-300900- COASTAL PLAIN CITY SKY/WX TMP DP RH WIND PRES REMARKS AHOSKIE CLOUDY 55 53 92 CALM 30.09S CLINTON PTCLDY 61 60 97 NE3 30.06R ELIZABETHTOWN CLEAR 61 61 100 CALM 30.03R FOG GOLDSBORO CLOUDY 61 61 100 NE9 30.04R GREENVILLE CLOUDY 59 57 94 NE7 30.09S FOG HAVELOCK NOT AVBL KENANSVILLE CLEAR 57 57 98 N3 30.06R FOG KINSTON CLOUDY 60 59 96 NE9 30.07S NEW BERN CLOUDY 61 58 90 N13 30.05S RICHLANDS MOCLDY 57 57 100 N5 30.05R ROCKY MOUNT CLOUDY 59 57 93 NE7 30.08R WASHINGTON CLOUDY 57 55 94 NE9 30.08R WHITEVILLE PTCLDY 61 59 96 CALM 30.00S FOG $$ AMZ130-135-150-152-154-156-158-170-250-252-270-ANZ085-086-088-633-658-670-300900- MARINE OBSERVATIONS STATION/POSITION TIME TEMP WIND PRES WAVE SWELL AIR SEA DIR/SP/G HT/PER HT/PER (UTC) (F) (DEG/KT/KT) (MB) (FT/S) (FT/S) CHESAPEAKE LIGHT 0800 52 30/ 21/ 23 1018.4 64 E VA BEACH 0750 52 53 10/ 17/ 21 1016.8 6/ 8 3/ 8 DUCK 0800 54 66 10/ 14/ 16 1017.9 2 E DUCK 0711 58 N/A 4/ 8 2/11 OREGON INLET 0800 56 63 350/ 9/ 13 1017.8 13E OREGON INLT 0800 55 N/A 5/ 8 5/ 8 HATTERAS CG 0800 60 70 10/ 19/ 24 1016.5 DIAMOND BUOY 0750 59 74 20/ 17/ 23 1016.4 4/10 3/10 CAPE LOOKOUT 0800 63 40/ 12/ 14 1016.7 BEAUFORT LAB 0800 62 67 20/ 8/ 11 1016.3 30 SE NEW RVR IN 0725 67 N/A 2/ 5 27 SE WRIGHTSVLE 0808 70 69 90/ 6/ 10 1015.8 5 SE WRIGHTSVLE 0808 68 68 80/ 8/ 12 1016.9 225 S CAPE HAT 0750 71 71 50/ 12/ 14 1015.3 3/10 2/10 41 SE CHARLESTON 0750 74 73 110/ 6/ 8 1014.7 2/10 2/10 $$

USA.gov is the U.S. government's official web portal to all federal, state and local government web resources and services.